GMMB

Details ICAO GMMB
Name BEN SLIMANE
Region Morocco
Timezone Africa/Casablanca (UTC+0.0)
Plans Departing 5
Arriving 11
Stats Elevation 627 ft / 191 m (AMSL)
Location 33.655423° -7.221449°
Runways 1
Magnetic Variation 1.649° W
Sunrise 2018-05-24 05:24:16 UTC / 2018-05-24 05:24:16 Local
Sunset 2018-05-24 19:30:03 UTC / 2018-05-24 19:30:03 Local
Advertisement - Login to hide

Runways

ID Width Length Bearing (true) Bearing (mag) Surface Threshold Offset Overrun Length
14 150 ft / 46 m 10,096 ft / 3,077 m 141.46° 143.11° Asphalt 0 ft / 0 m 249 ft / 76 m
32 150 ft / 46 m 10,096 ft / 3,077 m 321.47° 323.12° Asphalt 0 ft / 0 m 249 ft / 76 m

Map

Weather


0- 5 10 15 20 25 30 35+ Temperature / ° C

Clouds and Precipitation
Forecast for 2018-05-24 12:00 UTC. Updated an hour ago

Ground ~20,000 ft ~40,000 ft Winds

METAR

GMMB 241200Z 28004KT 230V330 8000 SCT016 BKN100 19/14 Q1017 NOSIG

TAF

Not found

Frequencies

Tower 118.20 MHz TWR
Approach 121.30 MHz APP
Warning: Do not use this data for real-world aviation or navigation. No guarantee of current accuracy is given.